[Iaude] MPEC A115: 2024 AU2 [a=2.33,e=0.69,i=6.3,H=22.4]
    mpec at marsden.cfa.harvard.edu 
    mpec at marsden.cfa.harvard.edu
       
    Wed Jan 10 15:37:43 EST 2024
    
    
  
M.P.E.C. 2024-A115                             Issued 2024 January 10, 20:36 UT
     The Minor Planet Electronic Circulars contain information on unusual
         minor planets, routine data on comets and natural satellites,
         and occasional editorial announcements.  They are published
    on behalf of Division F of the International Astronomical Union by the
          Minor Planet Center, Smithsonian Astrophysical Observatory,
                          Cambridge, MA 02138, U.S.A.
			  
             Prepared using the Tamkin Foundation Computer Network
                              MPC at CFA.HARVARD.EDU
            URL https://www.minorplanetcenter.net/    ISSN 1523-6714
                                    2024 AU2                                    
Observations:
     K24A02U  C2023 12 30.52519907 56 08.580+58 26 00.30         20.52GVEA115F52
     K24A02U  C2023 12 30.53358507 56 10.339+58 26 43.68         20.89GVEA115F52
     K24A02U* C2024 01 06.56994009 01 14.889+72 05 07.94         20.19wXEA115F52
     K24A02U  C2024 01 06.58360609 01 31.566+72 07 06.87         20.28wXEA115F52
     K24A02U  C2024 01 06.59719909 01 48.096+72 09 03.45         20.65wXEA115F52
     K24A02U  C2024 01 06.61086709 02 05.176+72 11 02.15         20.34wXEA115F52
     K24A02U KB2024 01 06.90655309 09 08.88 +72 54 02.7          19.9 GXEA115I93
     K24A02U KB2024 01 06.91033709 09 14.37 +72 54 37.7          19.9 GXEA115I93
     K24A02U KB2024 01 06.91399409 09 19.57 +72 55 10.7          19.9 GXEA115I93
     K24A02U 1C2024 01 09.73556 11 21 15.97 +79 16 25.5          19.2 VXEA115033
     K24A02U 1C2024 01 09.73654 11 21 21.13 +79 16 30.3          20.2 VXEA115033
     K24A02U 1C2024 01 09.73700 11 21 23.37 +79 16 32.8          20.2 VXEA115033
     K24A02U 1C2024 01 09.73839 11 21 30.16 +79 16 40.5          20.2 VXEA115033
     K24A02U KC2024 01 09.92353311 37 02.143+79 32 40.16         19.4 GVEA115J95
     K24A02U KC2024 01 09.92764611 37 23.256+79 32 59.71         19.9 GVEA115J95
     K24A02U KC2024 01 09.99801311 43 29.66 +79 38 41.0          20.0 GVEA115L01
     K24A02U KC2024 01 09.99957611 43 37.90 +79 38 48.0          20.4 GVEA115L01
     K24A02U KC2024 01 10.00113111 43 45.99 +79 38 55.3          19.9 GVEA115L01
     K24A02U KC2024 01 10.70843412 51 45.24 +80 03 11.9          18.9 RVEA115K61
     K24A02U KC2024 01 10.70931212 51 50.63 +80 03 11.4          19.5 RVEA115K61
     K24A02U KC2024 01 10.71097912 52 01.16 +80 03 11.4          18.9 RVEA115K61
     K24A02U 1C2024 01 10.72939 12 53 55.24 +80 03 08.6          19.6 VXEA115033
     K24A02U 1C2024 01 10.73002 12 53 59.21 +80 03 08.6          19.9 VXEA115033
     K24A02U 1C2024 01 10.73064 12 54 03.14 +80 03 08.4          19.9 VXEA115033
     K24A02U 1C2024 01 10.73133 12 54 07.47 +80 03 08.1          19.6 VXEA115033
Observer details:
033 Karl Schwarzschild Observatory, Tautenburg.  Observers S. Melnikov, C.
    Hogner, F. Ludwig, M. Hartmann, B. Stecklum.  Measurer B. Stecklum.
    1.34-m f/3 Schmidt + CCD.
F52 Pan-STARRS 2, Haleakala.  Observers J. Herman, T. Lowe, P. Minguez, A.
    Schultz, I. Smith.  Measurers K. Chambers, T. de Boer, J. Fairlamb, H.
    Gao, M. Huber, C.-C. Lin, E. Magnier, Y. Ramanjooloo, R. Wainscoat, R.
    Weryk.  1.8-m Ritchey-Chretien + CCD.
I93 St Pardon de Conques.  Observer F. Losse.  0.40-m f/3.7 reflector + CMO.
J95 Great Shefford.  Observer P. Birtwhistle.  0.41-m f/6.3 Schmidt-Cassegrain
    + CCD.
K61 Rokycany Observatory.  Observer M. Adamovsky.  0.51-m f/6.8 reflector +
    CCD.
L01 Visnjan Observatory, Tican.  Observers K. Korlevic, L. Poropat.  Measurer
    K. Korlevic.  1.0-m f/2.9 reflector + CCD.
Orbital elements:
2024 AU2                                                 Earth MOID = 0.0998 AU
Epoch 2023 Sept. 13.0 TT = JDT 2460200.5                Bell                    
M 313.65729              (2000.0)            P               Q                  
n   0.27798816     Peri.  183.16265     -0.99378666     +0.11112906             
a   2.3251547      Node     3.23739     -0.09955780     -0.86265371             
e   0.6949542      Incl.    6.30043     -0.04976265     -0.49343583             
P   3.55           H   22.41          G   0.15           U   9                  
Residuals in seconds of arc
231230 F52  0.1-  0.2+    240109 033  0.6-  0.2-    240110 K61  0.4+  0.7+
231230 F52  0.0   0.1-    240109 033  0.4+  0.8-    240110 K61  0.2+  0.3+
240106 F52  0.2+  0.2-    240109 033  0.4+  0.8-    240110 K61  0.4+  0.5+
240106 F52  0.3+  0.3+    240109 033  0.3+  0.9-    240110 033  0.6-  0.3-
240106 F52  0.4-  0.7-    240109 J95  0.5+  0.4+    240110 033  0.5-  0.2-
240106 F52  0.4+  0.1+    240109 J95  0.1+  0.1+    240110 033  0.4-  0.3-
240106 I93  0.2+  0.4-    240109 L01  0.4-  0.3-    240110 033  0.4-  0.4-
240106 I93  0.5+  0.1+    240109 L01  0.2-  0.2-
240106 I93  0.3+  0.2-    240110 L01  0.3-  0.2+
Ephemeris:
2024 AU2                 a,e,i = 2.33, 0.69, 6                   q = 0.7093
Date    TT    R. A. (2000) Decl.     Delta      r    Elong.  Phase     V
2023 12 11    07 21 11.2 +42 23 35   0.4347  1.3683   146.4    23.5    22.4
...
2023 12 26    07 42 44.3 +52 49 21   0.2570  1.2056   146.2    27.0    21.1
...
2024 01 03    08 15 18.7 +64 14 54   0.1775  1.1185   136.4    37.3    20.4
...
2024 01 09    10 29 55.6 +77 55 30   0.1292  1.0539   120.0    53.9    20.1
2024 01 10    11 43 20.9 +79 38 26   0.1228  1.0432   116.1    57.9    20.0
2024 01 11    13 21 41.5 +79 58 34   0.1170  1.0326   111.8    62.2    20.0
...
2024 01 17    17 53 53.9 +54 06 34   0.1002  0.9700    79.2    94.9    20.7
...
2024 01 25    18 39 48.0 +14 43 17   0.1335  0.8911    42.8   131.3    23.6
...
2024 02 09    19 08 04.4 -13 03 29   0.2803  0.7694    33.8   134.5    25.3
M. P. C. Staff               (C) Copyright 2024 MPC           M.P.E.C. 2024-A115
    
    
More information about the Iaude
mailing list